Date,TemperatureHighF,TemperatureAvgF,TemperatureLowF,DewpointHighF,DewpointAvgF,DewpointLowF,HumidityHigh,HumidityAvg,HumidityLow,PressureMaxIn,PressureMinIn,WindSpeedMaxMPH,WindSpeedAvgMPH,GustSpeedMaxMPH,PrecipitationSumIn
2013-2-1,70,52,41,45,39,34,94,64,27,30.36,30.22,2,0,8,0.01
2013-2-2,73,54,40,54,46,38,98,78,48,30.32,30.16,1,0,6,0.00
2013-2-3,73,56,45,51,47,41,97,73,40,30.22,30.08,3,0,10,0.00
2013-2-4,73,54,40,52,46,38,98,75,44,30.16,30.04,1,0,5,0.00
2013-2-5,81,58,40,56,49,39,98,77,35,30.13,30.02,2,0,8,0.00
2013-2-6,79,65,53,67,60,52,97,84,57,30.14,30.05,1,0,4,0.00
2013-2-7,82,69,59,68,63,58,98,82,55,30.11,29.91,2,0,8,0.00
2013-2-8,82,68,58,65,61,56,98,81,42,30.08,29.88,3,0,10,0.00
2013-2-9,75,63,52,61,58,52,99,84,59,30.21,30.07,2,0,8,0.00
2013-2-10,77,67,60,61,58,56,93,76,57,30.29,30.20,2,0,8,0.00
2013-2-11,86,70,58,66,62,57,98,79,45,30.24,30.10,2,0,9,0.00
2013-2-12,87,72,59,69,65,58,99,80,49,30.13,29.95,3,0,9,0.00
2013-2-13,89,74,63,71,67,60,98,80,46,29.99,29.84,4,1,15,0.01
2013-2-14,70,62,59,66,61,58,99,95,85,30.06,29.95,1,0,6,1.03
2013-2-15,71,61,55,62,59,55,99,93,69,30.09,29.97,1,0,4,0.41
2013-2-16,70,59,48,58,48,33,98,71,39,30.09,29.90,6,1,17,0.01
2013-2-17,57,45,34,39,26,18,92,52,24,30.37,30.10,2,1,9,0.00
2013-2-18,67,50,33,52,41,29,95,75,50,30.38,30.27,2,0,6,0.00
2013-2-19,79,62,47,60,53,46,97,75,44,30.27,30.08,4,1,12,0.00
2013-2-20,75,63,52,63,58,51,98,85,66,30.16,30.04,1,0,6,0.00
2013-2-21,82,68,57,68,63,56,99,84,58,30.13,30.03,1,0,5,0.00
2013-2-22,83,71,59,73,67,58,100,89,67,30.12,30.02,2,0,6,0.00
2013-2-23,90,74,65,72,67,64,99,82,45,30.05,29.88,3,1,9,0.01
2013-2-24,84,71,67,71,68,65,98,89,59,29.99,29.91,3,0,9,0.01
2013-2-25,88,74,66,74,68,65,100,83,50,29.94,29.80,2,0,8,0.00
2013-2-26,84,75,66,73,69,63,96,84,59,29.88,29.76,4,1,16,0.00
2013-2-27,77,66,57,64,59,54,98,80,52,29.98,29.87,3,0,7,0.00
2013-2-28,77,62,49,53,49,43,96,66,37,30.02,29.88,2,0,8,0.00